Weather Roundup
Issued by NWS Springfield, MO

Home | Current Version | Previous Version | Text Only | Print | Product List | Glossary On
Versions: 1 2 3 4 5 6 7 8 9 10 11 12 13 14 15 16 17 18 19 20 21 22 23 24 25 26 27 28 29 30 31 32 33 34 35 36 37 38 39 40 41 42 43 44 45 46 47 48 49 50
000
NZUS99 KSGF 221107
HRRSGF

HOURLY WEATHER
NATIONAL WEATHER SERVICE SPRINGFIELD MO
500 AM CST WED NOV 22 2017

......SGF CWA......

CITY           SKY/WX    TMP DP  RH WIND       PRES   REMARKS
SPRINGFIELD    PTCLDY    23  17  78 N6        30.36S WCI  16
JOPLIN         CLOUDY    23  18  81 N5        30.41S WCI  17
WEST PLAINS    PTCLDY    27  17  66 N8        30.34S WCI  19
ROLLA          CLOUDY    22  17  81 N6        30.37R WCI  14
OSAGE BEACH    CLOUDY    25  17  72 CALM      30.40S
BRANSON        CLOUDY    25  18  74 CALM      30.37S

......SURROUNDING SGF CWA......

CITY           SKY/WX    TMP DP  RH WIND       PRES   REMARKS
CHANUTE        CLOUDY    23  15  71 CALM      30.42F
PARSONS        CLOUDY    21  16  81 N3        30.44S
COFFEYVILLE    CLOUDY    24  17  74 N7        30.44R WCI  16
EMPORIA        CLOUDY    19  12  74 N5        30.42R WCI  12
GROVE OK       CLOUDY    30  21  69 CALM      30.42R
ROGERS AR      CLOUDY    26  19  74 NE5       30.37S WCI  20
SILOAM SPRINGS CLOUDY    26  19  74 NE5       30.37S WCI  20
HARRISON AR    CLOUDY    27  19  72 NW5       30.36R WCI  22
NEAR YELLVILLE CLEAR     32  20  61 N7        30.39R WCI  26

......KANSAS AND MISSOURI......

CITY           SKY/WX    TMP DP  RH WIND       PRES   REMARKS
KANSAS CTY INT CLOUDY    16  12  84 CALM      30.41S
DOWNTOWN KC    CLOUDY    23  14  68 N6        30.43S WCI  16
COLUMBIA       CLOUDY    22  15  75 N6        30.38F WCI  14
SEDALIA        PTCLDY    22  19  89 NW5       30.42R WCI  16
ST JOSEPH      CLOUDY    17  12  80 CALM      30.43S
ST LOUIS       MOCLDY    26  19  74 NW8       30.38R WCI  18
SPIRIT OF STL  CLOUDY    26  19  74 NW7       30.39R WCI  18
KIRKSVILLE     CLOUDY    18  14  84 NW3       30.39S
WICHITA        CLOUDY    25  15  66 N6        30.42S WCI  18
TOPEKA         CLOUDY    19  14  81 CALM      30.43S
OLATHE         CLOUDY    21  14  74 N6        30.40S WCI  13

......TENNESSEE......

CITY           SKY/WX    TMP DP  RH WIND       PRES   REMARKS
MEMPHIS        CLEAR     38  28  67 N13       30.28R WCI  30
NASHVILLE      CLEAR     36  28  73 N15G22    30.22R WCI  27

......ARKANSAS.......

CITY           SKY/WX    TMP DP  RH WIND       PRES   REMARKS
FAYETTEVILLE   CLOUDY    28  21  75 N3        30.35F
FT SMITH       CLEAR     36  22  56 N7        30.36R WCI  30
LITTLE ROCK    CLEAR     41  25  53 N9G20     30.33R

......OKLAHOMA.......

CITY           SKY/WX    TMP DP  RH WIND       PRES   REMARKS
TULSA          CLOUDY    29  18  63 N10       30.44R WCI  20
PONCA CITY     CLOUDY    23  14  68 N5        30.43S WCI  17
MCALESTER      CLEAR     33  20  58 N13       30.38F WCI  24
OKLAHOMA CITY  PTCLDY    30  15  53 NE8       30.40R WCI  22

......IOWA............

CITY           SKY/WX    TMP DP  RH WIND       PRES   REMARKS
DES MOINES     CLOUDY    19  11  70 NW5       30.40R WCI  12
QUAD CITIES    CLOUDY    20  12  71 W3        30.38R

......ILLINOIS........

CITY           SKY/WX    TMP DP  RH WIND       PRES   REMARKS
QUINCY         PTCLDY    21  16  81 NW6       30.38R WCI  13
CHICAGO        CLEAR     23  15  71 NW6       30.31R WCI  16




USA.gov is the U.S. government's official web portal to all federal, state and local government web resources and services.